Location: La Chapelle
(48.3135°N, 1.3085°W)
Time: 11:09:39
(UTC+00:00)

USA 234 - Pass Details

Date: 03 March 2021
Orbit: 1102 x 1105 km, 123.0° (Epoch: 08 April)

Event Time Altitude Azimuth Distance (km) Brightness Sun altitude
Exits shadow 21:27:17 61° 345° (NNW) 1,238 3.5 -34.9°
Maximum altitude 21:27:29 62° 336° (NNW) 1,235 3.5 -34.9°
Drops below altitude 10° 21:33:54 10° 258° (WSW) 2,960 5.9 -35.8°
Sets 21:36:24 0° 255° (WSW) 3,917 6.6 -36.1°
